Paso Robles, CA

5:03 AM PST on February 26, 2017 (GMT -0800)
Paso Robles Municipal

Weather History for KPRB - May, 2012

Change the Weather History Date:

Sunday, May 6, 2012

  Actual Average Record
Temperature  
Mean Temperature 63 °F 61 °F  
Max Temperature 88 °F 78 °F 104 °F (1987)
Min Temperature 38 °F 45 °F 33 °F (1975)
Degree Days  
Heating Degree Days 2 5  
Month to date heating degree days 25 31  
Since 1 July heating degree days 2675 2743  
Cooling Degree Days 0 1  
Month to date cooling degree days 0 6  
Year to date cooling degree days 27 15  
Growing Degree Days 14 (Base 50)    
Moisture  
Dew Point 36 °F    
Average Humidity 49    
Maximum Humidity 85    
Minimum Humidity 13    
Precipitation  
Precipitation 0.00 in 0.01 in 0.26 in (1955)
Month to date precipitation 0.00 0.08  
Year to date precipitation 5.87 8.59  
Since 1 July precipitation 8.68  
Sea Level Pressure  
Sea Level Pressure 29.99 in    
Wind  
Wind Speed 4 mph (NNW)    
Max Wind Speed 14 mph    
Max Gust Speed -    
Visibility 10 miles    
Events      
T = Trace of Precipitation, MM = Missing Value Source: NWS Daily Summary

Daily Weather History Graph

Daily Weather History Graph

Search for Another Location

Airport or City:

Trip Planner

Search our weather history database for the weather conditions in past years. The results will help you decide how hot, cold, wet, or windy it might be!

Date:

Astronomy

May. 06, 2012 Rise Set
Actual Time 6:04 AM PDT 7:53 PM PDT
Civil Twilight 5:37 AM PDT 8:21 PM PDT
Nautical Twilight 5:03 AM PDT 8:55 PM PDT
Astronomical Twilight 4:27 AM PDT 9:31 PM PDT
Moon 9:02 PM PDT (5/6) 6:21 AM PDT (5/6)
Length of Visible Light 14h 44m
Length of Day
13h 49m
Full, 99% of the Moon is Illuminated
May 6
Full
May 12
Last Quarter
May 20
New
May 28
First Quarter
Jun 4
Full

Hourly Weather History & Observations

Time (PDT) Temp. Windchill Dew Point Humidity Pressure Visibility Wind Dir Wind Speed Gust Speed Precip Events Conditions
12:53 AM 53.6 °F - 39.2 °F 58% 30.04 in 10.0 mi NW 5.8 mph - N/A   Clear
1:53 AM 50.0 °F - 37.9 °F 63% 30.02 in 10.0 mi Calm Calm - N/A   Clear
2:53 AM 43.0 °F 41.3 °F 37.0 °F 80% 30.02 in 10.0 mi NE 3.5 mph - N/A   Clear
3:53 AM 42.1 °F 40.2 °F 36.0 °F 79% 30.01 in 10.0 mi East 3.5 mph - N/A   Clear
4:53 AM 41.0 °F - 36.0 °F 82% 30.01 in 10.0 mi Calm Calm - N/A   Clear
5:53 AM 39.9 °F - 35.1 °F 83% 30.02 in 10.0 mi Calm Calm - N/A   Clear
6:53 AM 43.0 °F - 36.0 °F 76% 30.03 in 10.0 mi Calm Calm - N/A   Clear
7:53 AM 50.0 °F - 37.0 °F 61% 30.04 in 10.0 mi Calm Calm - N/A   Clear
8:53 AM 57.0 °F - 36.0 °F 45% 30.05 in 10.0 mi Calm Calm - N/A   Clear
9:53 AM 64.0 °F - 37.0 °F 37% 30.04 in 10.0 mi Variable 3.5 mph - N/A   Clear
10:53 AM 71.1 °F - 36.0 °F 28% 30.02 in 10.0 mi Variable 3.5 mph - N/A   Clear
11:53 AM 75.9 °F - 34.0 °F 22% 30.01 in 10.0 mi Calm Calm - N/A   Clear
12:53 PM 81.0 °F - 35.1 °F 19% 29.99 in 10.0 mi Variable 4.6 mph - N/A   Clear
1:53 PM 84.0 °F - 35.1 °F 17% 29.97 in 10.0 mi NNE 4.6 mph - N/A   Clear
2:53 PM 86.0 °F - 36.0 °F 17% 29.96 in 10.0 mi NW 8.1 mph - N/A   Clear
3:53 PM 87.1 °F - 34.0 °F 15% 29.94 in 10.0 mi NNE 9.2 mph - N/A   Clear
4:53 PM 88.0 °F - 33.1 °F 14% 29.92 in 10.0 mi Variable 4.6 mph - N/A   Clear
5:53 PM 87.1 °F - 30.9 °F 13% 29.92 in 10.0 mi Variable 4.6 mph - N/A   Clear
6:53 PM 84.0 °F - 36.0 °F 18% 29.93 in 10.0 mi North 10.4 mph - N/A   Clear
7:53 PM 75.9 °F - 37.0 °F 24% 29.95 in 10.0 mi North 13.8 mph - N/A   Clear
8:53 PM 71.1 °F - 37.0 °F 29% 29.97 in 10.0 mi WNW 8.1 mph - N/A   Clear
9:53 PM 66.9 °F - 37.9 °F 34% 29.99 in 10.0 mi WNW 10.4 mph - N/A   Clear
10:53 PM 64.9 °F - 37.9 °F 37% 30.01 in 10.0 mi NW 4.6 mph - N/A   Clear
11:53 PM 62.1 °F - 37.0 °F 39% 30.01 in 10.0 mi NNW 5.8 mph - N/A   Clear